EW1690 Weather Reports


time (UTC)temp
C
wind
direction
speed
KPH
gust
KPH
rain 1hr
cm
rain 24hr
cm
rain mn
cm
humidity
%
barometer
mb
20260508044017 3 186 0.0 9.7 0.00 0.00 0.00 62 1014.6
20260508043512 3 189 1.6 12.9 0.00 0.00 0.00 62 1014.7
20260508043018 3 178 4.8 12.9 0.00 0.00 0.00 62 1014.6
20260508042507 3 164 4.8 11.3 0.00 0.00 0.00 63 1014.6
20260508042004 3 130 6.4 11.3 0.00 0.00 0.00 62 1014.5
20260508041502 3 131 4.8 8.0 0.00 0.00 0.00 62 1014.6
20260508041100 3 162 1.6 8.0 0.00 0.00 0.00 62 1014.6
20260508040558 3 180 1.6 8.0 0.00 0.00 0.00 60 1014.7
20260508040054 3 164 0.0 17.7 0.00 0.00 0.00 60 1014.8
20260508035552 3 214 4.8 17.7 0.00 0.00 0.00 59 1014.6
20260508035050 3 198 1.6 9.7 0.00 0.00 0.00 59 1014.6
20260508034551 3 158 1.6 4.8 0.00 0.00 0.00 58 1014.6
20260508034044 3 234 0.0 4.8 0.00 0.00 0.00 58 1014.9
20260508033543 3 182 0.0 11.3 0.00 0.00 0.00 57 1014.8
20260508033040 3 179 1.6 11.3 0.00 0.00 0.00 55 1014.8
20260508032638 3 153 0.0 6.4 0.00 0.00 0.00 57 1014.7
20260508032138 3 252 0.0 6.4 0.00 0.00 0.00 56 1015.0
20260508031534 4 232 1.6 4.8 0.00 0.00 0.00 55 1015.1
20260508031034 4 171 1.6 4.8 0.00 0.00 0.00 55 1014.9
20260508030635 4 184 0.0 4.8 0.00 0.00 0.00 55 1014.9
20260508030031 5 251 0.0 3.2 0.00 0.00 0.00 53 1014.9
20260508025528 5 252 0.0 4.8 0.00 0.00 0.00 52 1014.8
20260508025025 5 252 0.0 6.4 0.00 0.00 0.00 50 1015.0
20260508024526 5 245 1.6 6.4 0.00 0.00 0.00 49 1014.9
20260508024021 5 269 0.0 9.7 0.00 0.00 0.00 48 1014.9
20260508023518 6 264 0.0 9.7 0.00 0.00 0.00 48 1014.8
20260508023015 6 261 0.0 17.7 0.00 0.00 0.00 46 1014.7
20260508022514 6 325 3.2 17.7 0.00 0.00 0.00 44 1014.6
20260508022010 6 283 9.7 16.1 0.00 0.00 0.00 44 1014.6
20260508021508 6 302 4.8 16.1 0.00 0.00 0.00 45 1014.7
20260508021105 6 274 6.4 16.1 0.00 0.00 0.00 44 1014.8
20260508020603 6 275 8.0 16.1 0.00 0.00 0.00 44 1014.7
20260508020002 6 306 3.2 14.5 0.00 0.00 0.00 45 1014.6
20260508015558 6 275 8.0 19.3 0.00 0.00 0.00 45 1014.7
20260508015056 6 280 9.7 19.3 0.00 0.00 0.00 45 1014.6
20260508014553 6 293 11.3 24.1 0.00 0.00 0.00 44 1014.5
20260508014153 6 300 9.7 24.1 0.00 0.00 0.00 42 1014.5
20260508013548 7 250 8.0 27.4 0.00 0.00 0.00 40 1014.4
20260508013046 7 300 16.1 27.4 0.00 0.00 0.00 39 1014.3
20260508012545 7 279 12.9 22.5 0.00 0.00 0.00 38 1014.2
20260508012041 7 338 8.0 19.3 0.00 0.00 0.00 40 1014.3
20260508011538 7 316 1.6 12.9 0.00 0.00 0.00 43 1014.4
20260508010534 7 282 4.8 17.7 0.00 0.00 0.00 41 1014.4
20260508010034 7 275 8.0 17.7 0.00 0.00 0.00 41 1014.3
20260508005532 7 302 6.4 16.1 0.00 0.00 0.00 41 1014.3
20260508005034 7 282 1.6 17.7 0.00 0.00 0.00 41 1014.3
20260508004529 7 259 8.0 19.3 0.00 0.00 0.00 40 1014.4
20260508004127 7 269 6.4 17.7 0.00 0.00 0.00 40 1014.4
20260508003524 7 259 8.0 22.5 0.00 0.00 0.00 39 1014.4
20260508003022 7 277 11.3 22.5 0.00 0.00 0.00 39 1014.5
20260508002518 7 291 6.4 16.1 0.00 0.00 0.00 40 1014.6
20260508002017 8 275 3.2 16.1 0.00 0.00 0.00 40 1014.6
20260508001614 8 292 6.4 19.3 0.00 0.00 0.00 38 1014.5
20260508001011 9 301 9.7 24.1 0.00 0.00 0.00 36 1014.7
20260508000609 10 286 11.3 24.1 0.00 0.00 0.00 37 1014.7
20260508000006 10 281 9.7 22.5 0.00 0.00 0.00 35 1015.1
20260507235503 10 294 8.0 22.5 0.00 0.00 0.00 36 1015.0
20260507235059 10 276 6.4 22.5 0.00 0.00 0.00 37 1015.1
20260507234052 10 261 11.3 19.3 0.00 0.00 0.00 36 1014.9
20260507233550 10 308 6.4 19.3 0.00 0.00 0.00 37 1014.9
20260507233047 10 306 4.8 22.5 0.00 0.00 0.00 42 1015.1
20260507232544 9 295 12.9 29.0 0.00 0.00 0.00 39 1015.2
20260507232042 9 279 8.0 29.0 0.00 0.00 0.00 41 1015.2
20260507231546 8 320 12.9 27.4 0.00 0.00 0.00 41 1015.2
20260507231036 8 288 11.3 27.4 0.00 0.00 0.00 42 1015.3
20260507230534 8 304 12.9 24.1 0.00 0.00 0.00 39 1015.4
20260507230032 8 279 6.4 32.2 0.00 0.00 0.00 37 1015.5
20260507225532 8 300 17.7 32.2 0.00 0.05 0.00 39 1015.4
20260507225033 9 285 9.7 19.3 0.00 0.05 0.00 38 1015.5
20260507224123 10 284 11.3 29.0 0.00 0.05 0.00 40 1015.4
20260507223519 8 322 8.0 17.7 0.00 0.05 0.00 44 1015.5
20260507223016 7 316 3.2 11.3 0.00 0.05 0.00 47 1015.7
20260507222514 7 340 4.8 12.9 0.00 0.05 0.00 47 1015.8
20260507222011 7 299 3.2 12.9 0.00 0.05 0.00 46 1015.8
20260507221508 7 327 1.6 14.5 0.00 0.05 0.00 47 1015.9
20260507221002 7 281 3.2 9.7 0.00 0.05 0.00 45 1016.0
20260507220559 7 332 3.2 14.5 0.00 0.05 0.00 46 1016.1
20260507220057 7 315 6.4 14.5 0.00 0.05 0.00 42 1016.3
20260507215557 7 331 1.6 16.1 0.00 0.13 0.00 44 1016.3
20260507215053 8 279 8.0 19.3 0.00 0.13 0.00 41 1016.5
20260507214549 8 304 9.7 19.3 0.00 0.13 0.00 39 1016.6
20260507214046 8 293 6.4 17.7 0.00 0.13 0.00 41 1016.7
20260507213548 7 329 9.7 24.1 0.00 0.13 0.00 42 1016.8
20260507213143 7 287 6.4 27.4 0.00 0.13 0.00 42 1016.9
20260507212639 8 318 9.7 27.4 0.00 0.13 0.00 40 1017.0
20260507212035 8 289 11.3 19.3 0.00 0.13 0.00 38 1017.0
20260507211535 8 324 11.3 27.4 0.00 0.13 0.00 39 1017.2
20260507211032 9 296 11.3 27.4 0.00 0.13 0.00 43 1017.3
20260507210029 8 298 11.3 20.9 0.00 0.13 0.00 43 1017.7
20260507205526 8 313 8.0 25.7 0.00 0.38 0.00 41 1017.9
20260507205021 8 284 9.7 25.7 0.00 0.38 0.00 43 1017.8
20260507204518 8 333 6.4 29.0 0.00 0.38 0.00 43 1017.9
20260507204017 8 292 8.0 29.0 0.00 0.38 0.00 44 1017.9
20260507203521 8 281 9.7 30.6 0.00 0.38 0.00 43 1017.9
20260507203015 8 294 16.1 32.2 0.00 0.38 0.00 43 1018.0
20260507202610 8 331 6.4 32.2 0.00 0.38 0.00 44 1018.1
20260507202006 8 302 11.3 29.0 0.00 0.38 0.00 44 1018.2
20260507201504 8 296 16.1 29.0 0.00 0.38 0.00 43 1018.3
20260507201002 8 313 11.3 27.4 0.00 0.38 0.00 44 1018.3
20260507200601 8 320 11.3 27.4 0.00 0.38 0.00 45 1018.3
20260507200103 8 332 12.9 25.7 0.00 0.38 0.00 42 1018.4
20260507195555 8 263 9.7 22.5 0.00 0.71 0.00 45 1018.5
20260507195052 8 310 11.3 22.5 0.00 0.71 0.00 45 1018.5
20260507194652 8 300 4.8 29.0 0.00 0.71 0.00 46 1018.6
20260507194048 8 355 11.3 19.3 0.00 0.71 0.00 44 1018.7
20260507193544 8 9 4.8 19.3 0.00 0.71 0.00 47 1018.8
20260507193049 8 286 3.2 24.1 0.00 0.71 0.00 47 1018.9
20260507192541 8 306 6.4 24.1 0.00 0.71 0.00 49 1018.9
20260507192037 8 273 8.0 25.7 0.00 0.71 0.00 46 1019.0
20260507191534 8 288 11.3 25.7 0.00 0.71 0.00 44 1019.1
20260507191133 8 274 8.0 20.9 0.00 0.71 0.00 48 1019.3
20260507190529 8 349 6.4 16.1 0.00 0.71 0.00 49 1019.6
20260507190027 7 286 6.4 16.1 0.00 0.71 0.00 49 1019.7
20260507185522 7 11 1.6 12.9 0.00 0.84 0.00 50 1019.8
20260507185119 6 314 3.2 12.9 0.00 0.84 0.00 48 1019.7
20260507184517 6 197 1.6 6.4 0.00 0.84 0.00 52 1019.9
20260507184015 6 262 1.6 4.8 0.00 0.84 0.00 48 1019.9
20260507183511 6 216 0.0 3.2 0.00 0.84 0.00 52 1019.9
20260507183009 6 294 0.0 4.8 0.00 0.84 0.00 48 1020.1
20260507182508 5 302 0.0 4.8 0.00 0.84 0.00 48 1020.2
20260507182007 5 211 0.0 3.2 0.00 0.84 0.00 47 1020.2
20260507181505 5 158 0.0 3.2 0.00 0.84 0.00 48 1020.2
20260507181100 5 159 0.0 4.8 0.00 0.84 0.00 50 1020.3
20260507180558 5 98 0.0 4.8 0.00 0.84 0.00 49 1020.3
20260507180054 5 158 1.6 3.2 0.00 0.84 0.00 52 1020.7
20260507175551 5 159 0.0 3.2 0.00 0.89 0.00 49 1020.7
20260507175049 5 157 0.0 4.8 0.00 0.89 0.00 47 1020.8
20260507174557 5 161 0.0 6.4 0.00 0.89 0.00 48 1020.7
20260507174044 5 348 1.6 6.4 0.00 0.89 0.00 46 1020.8
20260507173542 6 141 1.6 8.0 0.00 0.89 0.00 48 1020.9
20260507173044 6 197 1.6 8.0 0.00 0.89 0.00 47 1020.8
20260507172542 6 233 1.6 9.7 0.00 0.89 0.00 46 1020.8
20260507172035 7 314 0.0 3.2 0.00 0.89 0.00 47 1020.8
20260507171538 7 293 0.0 4.8 0.00 0.89 0.00 48 1020.9
20260507171034 6 21 1.6 6.4 0.00 0.89 0.00 45 1021.1
20260507170530 7 355 1.6 6.4 0.00 0.89 0.00 46 1021.2
20260507165524 7 329 3.2 6.4 0.00 0.89 0.00 47 1021.5
20260507165020 6 18 0.0 8.0 0.00 0.89 0.00 46 1021.6
20260507164517 6 33 1.6 8.0 0.00 0.89 0.00 49 1021.7
20260507164014 6 119 0.0 4.8 0.00 0.89 0.00 48 1021.8
20260507163512 6 115 1.6 4.8 0.00 0.89 0.00 49 1021.8
20260507163129 5 121 0.0 4.8 0.00 0.89 0.00 50 1021.8
20260507162504 5 104 0.0 4.8 0.00 0.89 0.00 53 1022.0
20260507162000 3 19 0.0 3.2 0.00 0.89 0.00 59 1022.2
20260507161559 3 348 1.6 3.2 0.00 0.89 0.00 58 1022.4
20260507161056 3 318 0.0 9.7 0.00 0.89 0.00 56 1022.6
20260507160555 3 288 1.6 9.7 0.00 0.89 0.00 58 1022.8
20260507160053 3 296 3.2 8.0 0.00 0.89 0.00 59 1023.0
20260507155546 3 302 1.6 9.7 0.00 0.89 0.00 59 1023.1
20260507155144 2 313 1.6 12.9 0.00 0.89 0.00 60 1023.1
20260507154540 2 300 3.2 14.5 0.00 0.89 0.00 61 1023.1
20260507154037 2 309 4.8 16.1 0.00 0.89 0.00 62 1023.2
20260507153535 2 283 8.0 19.3 0.00 0.89 0.00 61 1023.2
20260507153032 2 302 9.7 24.1 0.00 0.89 0.00 63 1023.1
20260507152529 1 299 11.3 24.1 0.00 0.89 0.00 64 1023.1
20260507152127 1 315 12.9 24.1 0.00 0.89 0.00 63 1023.0
20260507151522 1 304 9.7 20.9 0.00 0.89 0.00 65 1023.1
20260507151018 0 322 8.0 19.3 0.00 0.89 0.00 64 1023.2
20260507150521 0 286 3.2 12.9 0.00 0.89 0.00 65 1023.6
20260507150015 0 274 0.0 4.8 0.00 0.89 0.00 65 1023.6
20260507145518 0 275 1.6 4.8 0.00 0.89 0.00 63 1023.7
20260507145110 0 237 1.6 4.8 0.00 0.89 0.00 64 1023.7
20260507144506 0 188 0.0 11.3 0.00 0.89 0.00 65 1023.8
20260507144002 0 248 3.2 12.9 0.00 0.89 0.00 64 1023.8
20260507143600 0 235 3.2 12.9 0.00 0.89 0.00 62 1023.6
20260507143057 0 323 3.2 16.1 0.00 0.89 0.00 63 1023.7
20260507142554 0 277 6.4 19.3 0.00 0.89 0.00 62 1023.7
20260507142050 0 295 6.4 19.3 0.00 0.89 0.00 63 1023.8
20260507141610 0 271 6.4 20.9 0.00 0.89 0.00 63 1023.8
20260507141047 0 292 9.7 20.9 0.00 0.89 0.00 61 1023.9
20260507140543 0 280 9.7 20.9 0.00 0.89 0.00 60 1023.9
20260507140041 0 318 4.8 16.1 0.00 0.89 0.00 60 1024.0
20260507135638 0 291 4.8 16.1 0.00 0.89 0.00 59 1023.9
20260507135038 0 332 6.4 12.9 0.00 0.89 0.00 58 1023.9
20260507134633 0 342 4.8 17.7 0.00 0.89 0.00 59 1024.0
20260507134031 0 239 4.8 12.9 0.00 0.89 0.00 60 1023.9
20260507133527 0 285 3.2 11.3 0.00 0.89 0.00 60 1024.0
20260507133025 0 291 3.2 16.1 0.00 0.89 0.00 62 1023.9
20260507132521 -1 321 1.6 16.1 0.00 0.89 0.00 62 1023.9
20260507132118 -1 298 3.2 16.1 0.00 0.89 0.00 62 1023.8
20260507131515 -1 271 3.2 20.9 0.00 0.89 0.00 63 1023.8
20260507131014 -1 276 8.0 20.9 0.00 0.89 0.00 65 1023.7
20260507130510 -1 314 6.4 16.1 0.00 0.89 0.00 65 1023.6
20260507130003 -2 275 6.4 16.1 0.00 0.89 0.00 67 1023.6
20260507125600 -2 308 4.8 14.5 0.00 0.89 0.00 68 1023.5
20260507125058 -2 315 3.2 14.5 0.00 0.89 0.00 68 1023.6
20260507124656 -2 308 1.6 11.3 0.00 0.89 0.00 67 1023.6
20260507124053 -2 288 4.8 11.3 0.00 0.89 0.00 66 1023.6
20260507123550 -3 277 1.6 11.3 0.00 0.89 0.00 65 1023.7
20260507123050 -2 304 1.6 11.3 0.00 0.89 0.00 64 1023.6
20260507122545 -2 296 1.6 14.5 0.00 0.89 0.00 64 1023.6
20260507122042 -2 253 6.4 14.5 0.00 0.89 0.00 63 1023.5
20260507121540 -2 327 4.8 14.5 0.00 0.89 0.00 64 1023.7
20260507121038 -3 319 6.4 14.5 0.00 0.89 0.00 66 1023.6
20260507120535 -3 287 4.8 14.5 0.00 0.89 0.00 65 1023.7
20260507120032 -3 161 3.2 16.1 0.00 0.89 0.00 66 1023.6
20260507115532 -3 271 4.8 16.1 0.00 0.89 0.00 68 1023.7
20260507115030 -5 261 3.2 11.3 0.00 0.89 0.00 72 1023.7
20260507114528 -5 237 1.6 8.0 0.00 0.89 0.00 72 1023.7
20260507114025 -5 181 0.0 4.8 0.00 0.89 0.00 72 1023.5
20260507113524 -5 186 0.0 3.2 0.00 0.89 0.00 71 1023.5
20260507113020 -5 155 0.0 4.8 0.00 0.89 0.00 71 1023.5
20260507112520 -5 156 0.0 4.8 0.00 0.89 0.00 71 1023.5
20260507112016 -5 263 0.0 3.2 0.00 0.89 0.00 70 1023.7
20260507111517 -4 260 0.0 3.2 0.00 0.89 0.00 69 1023.8
20260507111011 -4 260 0.0 4.8 0.00 0.89 0.00 68 1023.8
20260507110512 -3 273 0.0 12.9 0.00 0.89 0.00 68 1023.7
20260507110106 -4 266 3.2 12.9 0.00 0.89 0.00 68 1023.8
20260507105100 -4 281 1.6 8.0 0.00 0.89 0.00 69 1023.8
20260507104603 -4 266 1.6 8.0 0.00 0.89 0.00 69 1023.8
20260507104055 -5 261 0.0 12.9 0.00 0.89 0.00 69 1023.9
20260507103556 -5 256 1.6 8.0 0.00 0.89 0.00 71 1024.0
20260507103052 -5 232 0.0 4.8 0.00 0.89 0.00 69 1023.9
20260507102550 -5 206 0.0 4.8 0.00 0.89 0.00 68 1024.1
20260507102045 -5 180 0.0 4.8 0.00 0.89 0.00 68 1024.0
20260507101548 -5 180 0.0 4.8 0.00 0.89 0.00 67 1024.0
20260507101043 -4 340 0.0 3.2 0.00 0.89 0.00 66 1024.0
20260507100641 -4 344 0.0 6.4 0.00 0.89 0.00 66 1023.9
20260507100041 -4 321 1.6 6.4 0.00 0.89 0.00 66 1023.9
20260507095537 -4 287 1.6 4.8 0.00 0.89 0.00 66 1023.8
20260507095033 -4 275 0.0 11.3 0.00 0.89 0.00 65 1023.8
20260507094541 -4 277 0.0 6.4 0.00 0.89 0.00 64 1023.7
20260507094031 -3 180 1.6 4.8 0.00 0.89 0.00 62 1023.8
20260507093531 -3 194 0.0 11.3 0.00 0.89 0.00 61 1023.8
20260507093034 -3 355 3.2 11.3 0.00 0.89 0.00 61 1024.0
20260507092024 -3 259 1.6 6.4 0.00 0.89 0.00 60 1024.0
20260507091528 -3 308 3.2 11.3 0.00 0.89 0.00 61 1023.9
20260507091023 -3 311 3.2 11.3 0.00 0.89 0.00 60 1023.9
20260507090521 -3 286 4.8 12.9 0.00 0.89 0.00 58 1024.1
20260507090018 -3 296 3.2 14.5 0.00 0.89 0.00 57 1024.2
20260507085009 -3 299 6.4 16.1 0.00 0.89 0.00 57 1024.2
20260507084003 -2 281 4.8 17.7 0.00 0.89 0.00 56 1024.0
20260507083501 -2 320 3.2 22.5 0.00 0.89 0.00 54 1024.0
20260507083100 -2 315 9.7 27.4 0.00 0.89 0.00 54 1024.0
20260507082558 -2 286 9.7 30.6 0.00 0.89 0.00 54 1023.9
20260507082052 -2 267 14.5 35.4 0.00 0.89 0.00 56 1023.9
20260507081550 -3 296 14.5 35.4 0.00 0.89 0.00 57 1023.9
20260507081048 -3 333 3.2 14.5 0.00 0.89 0.00 57 1024.0
20260507080647 -3 325 4.8 25.7 0.00 0.89 0.00 58 1024.1
20260507080045 -3 324 9.7 25.7 0.00 0.89 0.00 58 1024.1
20260507075538 -4 256 6.4 19.3 0.00 0.89 0.00 60 1024.1
20260507075136 -4 298 3.2 17.7 0.00 0.89 0.00 62 1024.1
20260507074532 -5 290 4.8 12.9 0.00 0.89 0.00 64 1024.3
20260507074031 -5 322 1.6 9.7 0.00 0.89 0.00 66 1024.5
20260507073531 -5 265 1.6 12.9 0.00 0.89 0.00 66 1024.4
20260507073027 -5 287 4.8 14.5 0.00 0.89 0.00 67 1024.4
20260507072525 -5 314 6.4 16.1 0.00 0.89 0.00 67 1024.2
20260507072022 -5 288 8.0 22.5 0.00 0.89 0.00 68 1024.3
20260507071520 -5 317 8.0 22.5 0.00 0.89 0.00 68 1024.2
20260507070515 -5 300 11.3 19.3 0.00 0.89 0.00 70 1024.1
20260507065607 -5 269 4.8 16.1 0.00 0.89 0.00 70 1024.1
20260507065004 -5 311 4.8 17.7 0.00 0.89 0.00 69 1024.3
20260507064602 -5 302 4.8 12.9 0.00 0.89 0.00 68 1024.2
20260507064102 -4 320 4.8 19.3 0.00 0.89 0.00 68 1024.3
20260507063557 -4 327 8.0 19.3 0.00 0.89 0.00 66 1024.3
20260507063054 -4 321 9.7 19.3 0.00 0.89 0.00 67 1024.2
20260507062551 -4 312 9.7 17.7 0.00 0.89 0.00 67 1024.2
20260507061647 -5 318 6.4 14.5 0.00 0.89 0.00 68 1024.1
20260507061042 -4 306 4.8 14.5 0.00 0.89 0.00 67 1024.1
20260507060540 -4 305 4.8 14.5 0.00 0.89 0.00 68 1024.1
20260507060137 -4 319 6.4 14.5 0.00 0.89 0.00 68 1024.1
20260507055536 -5 309 3.2 8.0 0.00 0.89 0.89 70 1024.0
20260507055034 -4 327 1.6 11.3 0.00 0.89 0.89 69 1023.9
20260507054544 -4 313 3.2 16.1 0.00 0.89 0.89 67 1024.0
20260507054034 -5 274 6.4 16.1 0.00 0.89 0.89 68 1023.9
20260507053532 -4 313 1.6 14.5 0.00 0.89 0.89 68 1024.0
20260507053030 -4 291 1.6 4.8 0.00 0.89 0.89 68 1024.2
20260507052527 -4 270 1.6 8.0 0.00 0.89 0.89 69 1024.2
20260507052025 -4 273 1.6 8.0 0.00 0.89 0.89 68 1023.9
20260507051522 -4 261 0.0 6.4 0.00 0.89 0.89 67 1023.9
20260507051019 -3 205 0.0 16.1 0.00 0.89 0.89 67 1023.8
20260507050516 -3 126 4.8 16.1 0.00 0.89 0.89 66 1023.7
20260507050114 -3 318 0.0 12.9 0.00 0.89 0.89 66 1023.6
20260507045511 -4 355 0.0 11.3 0.00 0.89 0.89 67 1023.6
20260507045007 -4 121 1.6 11.3 0.00 0.89 0.89 67 1023.3
20260507044513 -4 132 0.0 11.3 0.00 0.89 0.89 69 1023.3